Theta_e
291 293 294 291 292 291 290 291 285 288 290 295 300 300 309 311 322 318 317 317 317 318 319 318 319 318 318 321 323 322 321 319 317 318 318 318 319 320 319 317 316 316 316 316
289 295 294 291 292 292 292 292 292 291 291 300 306 305 312 319 315 313 314 314 317 318 317 316 316 316 316 317 319 321 321 318 317 316 317 317 318 317 316 315 315 315 314 314
288 294 293 288 289 290 291 293 287 289 294 301 304 313 314 313 313 312 312 314 315 317 317 316 316 317 317 317 317 316 315 316 316 317 317 317 316 315 315 314 314 314 313 312
290 293 283 290 293 291 287 292 291 296 296 302 307 310 312 314 312 310 312 313 314 316 318 320 322 322 323 324 321 320 319 317 318 317 316 315 315 313 313 312 311 311 311 312
289 290 290 291 289 286 284 286 293 291 301 302 303 303 301 309 310 310 311 313 315 318 321 324 323 323 323 322 321 320 318 317 317 316 315 315 313 312 312 310 310 310 310 310
289 285 282 287 287 290 288 289 291 293 302 303 307 294 297 304 306 308 310 312 314 318 320 320 320 321 319 318 317 316 316 316 317 316 315 313 312 312 312 311 310 309 308 309
288 286 288 287 287 294 286 284 292 298 301 304 299 298 300 303 304 307 310 312 316 317 317 318 319 318 316 315 314 315 316 317 315 313 312 312 312 312 311 311 310 310 308 308
285 285 283 290 288 284 289 292 295 297 297 296 297 298 299 301 302 305 307 311 314 314 314 315 316 315 312 311 313 314 313 314 314 313 312 310 310 309 308 308 307 307 308 306
284 285 289 289 287 290 297 292 295 295 296 297 296 296 298 300 303 305 308 310 311 311 311 312 313 312 310 310 311 311 312 312 312 312 310 311 309 307 305 305 304 304 305 304
285 287 287 288 289 294 297 295 295 296 295 295 294 295 296 299 301 304 307 307 308 307 306 306 308 308 309 310 310 310 309 309 308 307 306 306 305 305 304 304 303 303 303 303
286 287 286 289 288 292 295 296 296 296 296 294 293 292 293 295 299 303 305 305 306 305 304 305 306 306 307 308 309 308 307 307 306 305 305 303 302 301 301 298 297 302 301 301
285 285 285 285 287 295 294 294 297 295 293 294 294 292 293 293 296 298 301 302 301 302 301 304 304 305 307 309 309 307 306 305 304 304 302 301 299 296 289 290 290 289 289 294
286 286 285 288 292 295 293 293 294 294 294 291 292 293 292 291 292 294 297 298 298 298 298 300 302 303 306 307 308 306 305 304 303 303 302 301 301 298 294 292 290 289 289 289
291 289 286 290 290 293 293 293 294 293 294 293 292 293 292 291 291 291 291 292 294 296 297 298 299 300 304 305 303 303 304 297 303 303 302 302 302 301 299 298 296 295 289 291
290 292 292 293 293 293 294 293 291 290 291 291 292 291 291 290 290 291 293 294 295 296 296 297 299 300 303 303 303 303 303 303 303 302 301 300 300 300 299 298 297 297 296 293
291 292 292 291 291 292 292 291 289 289 290 290 290 291 292 292 292 293 294 295 294 294 295 297 298 300 302 303 303 303 302 294 297 299 299 299 298 298 297 297 297 296 295 295
291 290 290 289 290 290 291 291 291 290 290 290 290 291 292 291 292 293 295 297 297 298 298 298 298 300 301 301 300 300 299 299 294 299 298 298 298 297 297 296 295 295 293 290
293 293 293 292 290 290 290 290 290 290 290 290 291 291 291 291 291 295 296 297 297 297 298 298 298 299 299 300 299 299 298 298 299 298 297 297 296 296 296 295 295 294 294 290
293 293 293 292 292 290 290 290 290 291 292 292 290 288 291 295 295 296 297 296 296 295 296 297 292 297 298 295 297 297 297 297 296 296 295 291 295 295 295 295 294 294 294 294
293 293 293 292 293 292 290 291 292 292 291 291 292 293 294 295 296 296 297 296 297 297 298 297 298 297 296 295 293 297 296 296 295 295 295 295 294 294 293 288 294 294 295 295
293 293 293 292 291 292 293 293 293 292 292 293 292 289 290 295 295 296 295 293 295 296 297 294 297 296 296 294 295 296 296 295 295 294 294 293 293 294 294 294 293 294 294 295
295 294 294 294 293 294 295 295 295 294 294 293 292 292 291 294 295 296 297 296 296 287 296 297 297 290 293 288 296 296 295 295 295 295 294 294 294 294 294 294 294 294 295 296
296 295 295 295 295 294 295 295 295 294 293 293 292 292 295 296 296 294 293 296 296 292 297 297 286 285 285 297 296 296 295 295 295 295 295 295 295 295 295 295 294 295 295 295
296 296 295 295 295 294 292 293 295 295 294 294 295 296 296 295 295 298 297 290 286 290 296 292 288 284 283 296 296 295 295 296 295 295 295 287 295 294 295 295 294 295 295 291
297 297 296 295 294 294 295 295 295 295 295 296 296 296 295 296 296 296 296 294 285 291 295 283 284 285 294 295 295 295 295 295 296 296 295 294 294 294 294 294 294 295 294 294
298 296 296 296 295 295 295 295 295 296 296 294 295 295 296 297 296 296 296 292 293 291 295 293 293 293 295 294 294 294 295 295 293 295 294 296 296 295 295 295 295 294 295 295
298 294 295 295 295 295 296 296 295 295 295 295 294 296 296 296 295 294 292 293 293 294 295 295 295 292 296 295 295 295 295 296 293 296 297 297 297 298 297 296 297 297 296 296
Wind_Speed
16 21 11 10 11 7 16 16 8 7 15 23 20 16 17 22 28 22 21 20 18 20 18 18 18 17 17 16 17 17 19 18 17 16 15 15 15 14 12 11 10 9 9 8
15 8 3 5 6 7 11 13 13 14 19 16 17 15 19 25 24 23 22 20 20 21 21 19 18 18 17 16 16 18 20 21 19 18 17 16 15 14 13 12 11 10 9 8
6 8 2 6 7 10 6 7 5 8 11 13 9 21 20 21 20 24 22 23 22 21 19 18 19 18 19 19 18 19 19 17 16 17 17 16 15 14 13 12 10 10 9 9
7 9 2 4 9 7 8 6 10 11 18 13 21 18 16 14 20 21 23 23 21 19 20 20 20 20 21 21 21 21 21 18 18 18 17 16 15 14 13 10 10 9 9 9
6 9 2 2 9 8 7 3 14 19 2 22 26 28 17 15 16 19 20 19 19 19 20 20 23 22 22 21 20 20 19 18 18 17 17 16 15 13 11 11 9 9 9 8
7 6 6 6 20 20 4 3 18 17 8 18 20 15 5 16 18 19 19 19 20 21 23 22 21 21 21 20 20 19 18 17 17 16 15 15 14 12 10 10 10 8 8 8
9 4 3 11 25 19 3 6 21 14 5 14 13 8 12 19 19 17 18 21 22 23 21 21 20 20 21 20 19 18 17 17 16 15 14 14 13 10 9 9 8 8 8 8
6 5 4 23 15 8 9 11 10 9 12 23 22 15 16 20 19 19 22 23 23 22 21 19 19 19 21 19 18 17 16 17 16 15 12 11 12 10 9 8 7 6 6 7
5 5 9 13 12 16 8 3 5 8 10 20 22 16 16 18 19 19 22 22 21 20 21 18 18 17 20 18 18 18 17 16 15 14 13 12 11 9 8 7 5 5 5 6
9 4 13 11 14 18 11 10 11 12 13 15 25 17 16 17 16 18 22 21 20 20 19 19 17 17 18 17 17 17 17 15 14 13 12 11 8 6 6 5 6 5 5 6
4 6 14 6 16 15 11 11 15 15 15 15 23 19 17 16 15 17 22 19 18 17 17 18 17 17 16 16 16 16 15 14 13 11 12 11 11 9 9 10 10 6 7 8
4 7 5 9 15 11 11 9 10 18 19 15 19 20 18 17 16 15 19 18 17 17 15 17 16 16 15 15 15 15 14 11 10 10 10 9 10 11 18 14 15 14 16 11
4 6 4 10 11 9 11 12 12 15 17 18 16 17 18 17 15 19 18 18 17 15 15 14 15 15 14 14 13 13 13 12 10 9 9 8 9 10 11 11 15 15 15 15
5 3 3 8 6 9 14 14 15 16 17 16 16 15 16 16 17 16 14 13 14 13 13 13 13 14 13 14 14 13 14 9 10 8 8 7 8 9 9 8 8 9 11 9
6 5 5 7 10 10 12 12 16 15 15 15 13 15 16 16 15 13 12 12 13 13 12 11 13 14 13 14 15 15 11 9 9 8 8 7 7 7 7 7 6 7 7 8
4 5 8 9 10 10 13 14 16 13 13 13 14 15 15 15 13 14 11 12 14 13 13 13 14 14 14 13 13 11 10 10 10 9 8 8 7 7 7 6 5 5 5 6
0 4 5 6 9 10 11 11 12 12 12 13 13 14 15 13 13 13 13 14 14 15 13 13 13 12 11 11 12 10 9 7 5 8 8 7 7 6 5 5 6 6 6 6
5 6 7 7 7 9 10 10 12 12 11 13 12 12 11 10 10 14 13 13 14 14 13 12 11 12 12 11 10 9 8 8 7 8 7 7 7 5 5 5 5 5 6 5
6 8 9 9 9 9 9 10 10 11 12 11 10 10 9 11 12 12 12 12 13 13 11 12 7 10 11 7 4 8 8 9 8 8 8 7 6 6 5 5 5 4 3 3
10 9 11 10 9 10 10 10 10 11 11 11 11 11 11 11 10 11 11 11 11 8 12 10 10 11 10 6 1 7 8 8 8 7 6 6 6 6 6 6 3 3 3 3
10 9 10 11 9 10 10 11 11 12 11 9 9 7 6 10 9 10 11 9 10 9 10 5 8 8 7 6 5 7 7 7 7 7 6 6 5 5 4 4 3 2 2 2
10 10 12 12 10 11 11 11 11 11 11 10 11 8 5 9 9 8 9 9 8 5 8 7 7 7 6 7 6 6 6 6 6 5 5 4 4 4 4 3 3 2 1 2
10 10 9 10 11 11 11 11 12 11 11 12 12 11 8 6 6 7 9 10 9 3 6 7 7 3 3 5 6 6 5 5 4 5 4 3 3 3 2 2 2 1 1 1
10 11 10 10 11 10 11 10 10 10 10 11 11 10 8 6 6 5 7 7 9 5 7 8 6 3 7 5 5 6 6 4 3 4 4 0 4 4 3 3 3 2 1 4
10 10 10 10 11 9 11 11 11 10 11 10 9 8 8 6 6 7 8 8 8 6 8 6 4 4 6 5 5 5 5 5 5 3 3 4 4 3 3 4 3 2 3 3
11 8 8 10 8 8 9 10 9 9 9 9 8 8 8 6 7 7 7 7 9 6 9 9 8 7 5 5 6 6 5 7 6 4 4 3 2 3 4 3 3 5 5 4
9 8 8 7 7 8 8 10 9 9 8 9 9 8 8 7 7 7 8 9 9 9 6 8 7 7 6 6 6 6 6 6 5 6 6 5 5 5 5 5 5 5 6 6
Wind_Direction
251 272 265 242 263 191 240 242 251 290 255 276 280 272 185 166 118 125 135 129 123 117 116 116 113 111 107 110 119 118 115 116 114 117 116 117 112 107 106 101 95 93 92 86
289 283 207 224 198 208 236 262 262 261 269 275 266 258 164 120 131 136 131 120 119 119 118 117 115 111 112 114 114 120 121 119 121 118 115 112 110 107 101 93 87 84 80 78
295 330 302 121 11 308 327 299 282 265 268 274 278 131 124 126 136 132 127 125 121 120 118 117 115 119 121 123 121 115 114 116 119 119 117 112 108 102 97 95 96 92 90 82
285 303 310 102 44 344 315 287 305 282 250 255 97 86 93 114 127 122 121 118 115 117 118 118 126 122 124 126 124 123 124 126 125 117 115 113 106 103 101 101 95 90 87 82
317 331 344 38 23 341 329 294 350 355 312 93 95 85 56 86 97 109 112 113 113 116 116 122 123 125 126 125 124 122 121 119 118 117 115 113 108 108 108 105 96 87 80 71
329 320 354 17 328 327 186 354 347 326 138 116 117 97 83 99 93 100 103 108 115 118 118 117 120 122 120 119 117 115 117 117 116 114 113 110 114 109 108 101 96 91 85 80
340 332 98 4 328 313 337 334 315 348 324 104 93 76 111 105 96 99 108 112 117 115 114 117 120 118 114 113 109 109 114 112 107 108 112 109 108 99 99 86 87 82 83 77
325 332 353 359 344 3 310 294 313 25 85 99 97 96 102 101 104 109 110 114 112 113 111 110 114 115 111 107 109 110 108 109 113 114 111 111 110 104 97 97 83 76 85 90
332 341 340 322 305 299 335 98 38 67 81 107 101 92 104 104 110 110 109 107 108 108 109 110 111 112 109 111 113 113 110 111 111 110 105 103 105 104 101 85 81 74 73 82
318 65 334 320 333 343 69 70 73 74 86 96 97 91 93 98 104 108 108 106 106 104 105 104 104 105 106 112 111 110 111 110 110 108 105 99 96 93 93 91 76 75 75 75
261 345 325 337 346 342 73 81 86 78 84 91 94 83 85 83 91 99 104 107 100 103 107 108 110 108 109 114 118 115 113 113 114 107 100 94 69 47 75 49 24 61 55 41
351 330 298 298 322 2 63 65 83 101 80 66 85 88 81 76 73 81 96 98 100 98 101 101 107 109 114 117 120 118 119 119 112 114 108 107 103 88 51 56 52 50 43 51
287 304 282 295 339 39 67 65 62 85 93 88 75 88 85 84 81 86 91 94 93 92 89 101 106 106 109 115 116 112 112 117 111 120 117 120 120 114 111 81 67 54 55 52
324 311 308 7 24 52 73 71 73 75 77 78 82 81 87 89 78 78 80 85 86 86 92 97 99 102 106 105 111 109 104 103 116 124 121 126 123 130 141 140 121 106 59 65
10 24 67 53 58 68 84 87 75 78 83 80 76 80 77 81 84 87 92 95 94 98 99 106 107 104 110 116 117 118 126 120 118 112 103 104 115 111 105 102 106 121 139 144
37 36 73 77 74 80 92 91 91 86 88 94 93 95 99 97 100 105 111 111 102 106 116 108 106 107 106 107 106 103 91 66 105 123 128 112 112 107 103 104 101 87 65 36
22 80 66 79 82 78 78 94 96 96 99 98 100 107 105 105 106 100 104 113 116 114 112 109 105 105 108 107 107 113 117 131 94 123 117 112 104 106 107 106 93 86 80 53
90 91 89 93 98 99 96 94 100 99 101 109 109 106 100 99 105 114 116 114 109 101 98 102 106 109 112 114 116 121 126 128 115 112 117 119 110 109 106 102 105 111 117 111
116 116 106 100 106 108 109 109 107 105 113 118 103 102 106 113 112 112 118 114 112 111 102 105 79 107 103 79 131 118 121 126 124 107 99 139 126 108 106 106 103 97 96 89
108 103 110 106 107 116 115 111 113 114 120 127 121 120 117 114 118 127 129 109 101 109 117 130 118 113 119 114 82 125 122 116 120 126 113 115 113 107 96 40 57 113 109 78
114 116 117 117 116 115 117 125 124 122 125 132 118 108 116 127 129 131 136 119 115 123 108 146 128 133 125 147 196 121 124 122 125 131 136 109 139 115 111 118 116 104 104 81
120 123 124 128 129 130 133 134 133 141 148 136 136 127 102 138 145 131 117 129 127 187 157 141 124 68 126 269 112 124 125 123 112 118 116 126 129 136 135 127 111 95 82 58
130 130 132 140 139 135 141 142 148 152 149 151 152 154 148 138 146 147 139 138 141 162 155 109 105 132 216 144 124 115 110 119 127 120 131 136 144 138 149 146 128 132 102 37
136 141 138 141 137 148 148 151 153 156 152 151 152 160 156 152 158 141 136 97 104 179 117 130 143 152 282 128 135 126 129 129 148 155 136 272 172 165 161 193 197 195 181 206
157 149 148 156 162 164 158 159 161 158 159 158 158 158 156 167 168 158 149 143 133 194 137 118 140 206 208 145 141 144 157 158 152 171 178 162 181 187 161 199 205 235 252 257
160 167 159 166 167 165 165 170 168 164 166 160 163 169 172 170 136 157 148 145 162 199 163 162 174 198 167 155 155 161 161 135 166 184 165 190 235 190 202 214 218 212 232 251
157 155 155 162 161 176 175 181 172 168 183 171 170 174 170 160 153 161 159 169 176 193 177 167 171 209 182 170 185 177 185 176 196 176 196 205 200 247 248 235 244 252 252 249